Skip Page Navigation
NASA JPL Caltech
NASA Logo - Jet Propulsion Laboratory + View the NASA Portal
+ Near-Earth Object (NEO) Program
Search JPL
JPL Home Earth Solar System Stars & Galaxies Technology
JPL Solar System Dynamics
BODIES ORBITS EPHEMERIDES TOOLS PHYSICAL DATA DISCOVERY FAQ SITE MAP
JPL Small-Body Database Browser
Search: [ help ]  
4581 Asclepius (1989 FC)
Classification: Apollo [NEO, PHA]          SPK-ID: 2004581
Ephemeris | Orbit Diagram | Orbital Elements | Physical Parameters | Discovery Circumstances | Close-Approach Data ]

[ show orbit diagram ]
Orbital Elements at Epoch 2456800.5 (2014-May-23.0) TDB
Reference: JPL 40 (heliocentric ecliptic J2000)
 Element Value Uncertainty (1-sigma)   Units 
e .3570246402860037 8.462e-08  
a 1.022402174580765 8.7288e-09 AU
q .6573794059734392 9.0845e-08 AU
i 4.918984408466133 7.9316e-06 deg
node 180.2986832625888 9.3476e-05 deg
peri 255.3015026434782 9.1085e-05 deg
M 189.7817956671911 1.0052e-05 deg
tp 2456979.039608301591
(2014-Nov-17.53960830)
1.2741e-05 JED
period 377.5992070912949
1.03
4.8357e-06
1.324e-08
d
yr
n .9533918325018096 1.2209e-08 deg/d
Q 1.38742494318809 1.1845e-08 AU
  Orbit Determination Parameters
   # obs. used (total)      148  
   # delay obs. used      2  
   # Doppler obs. used      2  
   data-arc span      8910 days (24.39 yr)  
   first obs. used      1989-03-31  
   last obs. used      2013-08-22  
   planetary ephem.      DE431  
   SB-pert. ephem.      SB431-BIG16  
   condition code      0  
   fit RMS      .52859  
   data source      ORB  
   producer      Otto Matic  
   solution date      2014-Jun-09 18:03:24  

Additional Information
 Earth MOID = .00347432 AU 
 T_jup = 5.914 
[ show covariance matrix ]

Ephemeris | Orbit Diagram | Orbital Elements | Physical Parameters | Discovery Circumstances | Close-Approach Data ]

Physical Parameter Table
Parameter Symbol Value Units Sigma Reference Notes
absolute magnitude H 20.7 mag n/a MPO267726  

4581 Asclepius (1989 FC)          Discovered 1989-Mar-31 by Holt and Thomas at Palomar (675)
Reference: DISCOVERY.DBLast Updated: 2003-08-29

[ hide close-approach data ]
Close-Approach Data   ...sorted by Date/Time (TDB)
Date/Time (TDB) Time Uncertainty
(days_HH:MM)
Body Nominal Distance (AU) Minimum Distance (AU) Maximum Distance (AU) V-relative (km/s) V-infinity (km/s) JD (TDB) Time Uncertainty (minutes) Semi-major axis (km) Semi-minor axis (km) range-LOV angle (deg) N-sigma BP Orbit Ref. Reference Modified
1901-Jun-27 09:26 00:16 Venus 0.11057868464311 0.110235724061283 0.110923119335671 12.6466276782102 12.6450747568698 2415562.893182513 16.2172832077317 23013.1801920405 11.5315801844511 43.8951157786015 770167.326074815 T 40 CATAB v2.0c-linF95 2014-Jun-09 18:03:26 2014-Jun-09 18:03
1909-Aug-01 16:42 00:09 Earth 0.448251354893247 0.447701788934501 0.448800948680812 23.8736203820112 23.8733713961268 2418520.195533022 8.93112369889565 27857.3081024189 7.06297302663912 -6.05129450840284 906038.329453796 T 40 CATAB v2.0c-linF95 2014-Jun-09 18:03:26 2014-Jun-09 18:03
1910-Aug-13 20:23 00:14 Earth 0.197568827091432 0.196888807362541 0.198248761205333 16.2607864136503 16.2599570147298 2418897.349498873 13.9998556412759 32281.057451386 7.70986437457113 -12.7027783304075 694546.676127088 T 40 CATAB v2.0c-linF95 2014-Jun-09 18:03:26 2014-Jun-09 18:03
1911-Aug-25 23:57 00:17 Earth 0.0827170795657191 0.0820376791899809 0.0834024702372752 8.72973762372633 8.72604693186922 2419274.498241706 17.236982338164 22437.9824066687 6.44750638874906 41.9339820175129 790090.841269678 T 40 CATAB v2.0c-linF95 2014-Jun-09 18:03:26 2014-Jun-09 18:03
1911-Oct-18 22:22 01:54 Venus 0.0514433323444108 0.0507523367461851 0.0521384483286267 8.32402125642273 8.31894855824718 2419328.432059935 113.65087854284 19591.7928646581 13.6158096264347 18.4058503057561 111629.879591316 T 40 CATAB v2.0c-linF95 2014-Jun-09 18:03:26 2014-Jun-09 18:03
1912-Jul-21 02:48 02:02 Earth 0.297897343776247 0.297449516530274 0.298345985643542 7.42415110232601 7.42294624904285 2419604.616640038 122.305427947568 7623.34633237187 17.8208025383943 7.33867515923615 176785.459291621 T 40 CATAB v2.0c-linF95 2014-Jun-09 18:03:26 2014-Jun-09 18:03
1912-Oct-21 18:04 03:13 Earth 0.27843066543323 0.278398365197159 0.278463142080861 9.74667485658307 9.74569297143945 2419697.252935603 192.706392169798 7353.73534914973 13.1848130317988 -81.6873433169345 2057602.6623268 T 40 CATAB v2.0c-linF95 2014-Jun-09 18:03:26 2014-Jun-09 18:03
1913-Jun-21 06:27 01:52 Earth 0.382157868121907 0.382015329139857 0.382300460809222 8.89291967413992 8.89213562311472 2419939.768699411 112.171072120961 3270.77803954836 23.5101040285995 19.9297737093099 516881.315710803 T 40 CATAB v2.0c-linF95 2014-Jun-09 18:03:26 2014-Jun-09 18:03
1913-Dec-01 07:20 03:18 Earth 0.329616145827552 0.329614276981612 0.329618042721509 12.4082841187263 12.4076326350298 2420102.805470319 197.779417984291 3678.29765253998 16.9798627419186 -88.9444687554662 2159944.25121232 T 40 CATAB v2.0c-linF95 2014-Jun-09 18:03:26 2014-Jun-09 18:03
1914-May-27 16:08 01:53 Earth 0.387753561425085 0.387657761849436 0.387849383185247 9.10552077451845 9.10476608247742 2420280.172116032 113.025228717552 2946.561895635 25.6341727692525 -36.4255767330038 850027.783823116 T 40 CATAB v2.0c-linF95 2014-Jun-09 18:03:26 2014-Jun-09 18:03
1915-Jan-08 21:26 03:35 Earth 0.303316815615969 0.303278455049314 0.303355178624343 10.797627217276 10.7968136304618 2420506.393181215 214.869832582697 1632.09579570604 9.23188032488675 -35.3545879030235 1978547.86347947 T 40 CATAB v2.0c-linF95 2014-Jun-09 18:03:26 2014-Jun-09 18:03
1915-Apr-30 19:04 02:06 Earth 0.320109521180628 0.319710051782868 0.320509462754174 8.13547721185468 8.1344540177166 2420618.294581884 126.286731104344 8527.07869263084 18.7969507378358 -16.7557147931473 432764.274365759 T 40 CATAB v2.0c-linF95 2014-Jun-09 18:03:26 2014-Jun-09 18:03
1916-Mar-20 07:41 00:15 Earth 0.132201160938075 0.131224471331561 0.133184835240433 7.07321820451451 7.07036818695429 2420942.820144647 15.4201948307551 17430.4968460262 3.52952449752226 0.233069956652818 10415.2456508001 T 40 CATAB v2.0c-linF95 2014-Jun-09 18:03:26 2014-Jun-09 18:03
1917-Mar-28 02:32 00:19 Earth 0.136225942631944 0.13523459271764 0.137216417360896 14.7313283714456 14.7300005789878 2421315.605809353 18.6984642737034 43508.2057396826 2.66832714085806 -0.766123632213679 79042.8489055999 T 40 CATAB v2.0c-linF95 2014-Jun-09 18:03:26 2014-Jun-09 18:03
1918-Apr-09 04:16 00:15 Earth 0.401111150967367 0.400163731511506 0.402058582863827 22.7065892481434 22.7062966992127 2421692.677576628 14.9510567455321 47344.4360586573 1.64268887634104 -0.68316607893205 387091.673795157 T 40 CATAB v2.0c-linF95 2014-Jun-09 18:03:26 2014-Jun-09 18:03
1922-Mar-14 22:08 00:26 Venus 0.114992785594876 0.113911756982092 0.116072830347377 15.2028220658579 15.2015798648373 2423128.422529075 26.359303693954 49345.5857796505 12.2456521917337 -4.15787417023363 83782.7935591851 T 40 CATAB v2.0c-linF95 2014-Jun-09 18:03:26 2014-Jun-09 18:03
1925-Jun-21 16:58 00:36 Venus 0.0920308920640154 0.0916799711018347 0.0923893732478013 10.8805940946361 10.8784252622435 2424323.206969189 35.9793058183846 34979.4823283756 10.4877283226233 57.4617386684635 802501.648168413 T 40 CATAB v2.0c-linF95 2014-Jun-09 18:03:26 2014-Jun-09 18:03
1933-Jul-31 05:28 00:06 Earth 0.481407176079226 0.481013539070722 0.481800830486543 24.8881985418441 24.8879761554185 2427284.727913112 5.95241840014846 20041.4774744957 6.86500757261144 -5.8799105316338 979937.739721489 T 40 CATAB v2.0c-linF95 2014-Jun-09 18:03:26 2014-Jun-09 18:03
1934-Aug-12 14:27 00:07 Earth 0.226071805288631 0.225714844104145 0.226428747415094 17.1458305688677 17.1451431584137 2427662.102026552 6.81244851978708 17170.5775422243 7.67630859165457 -11.2562342502594 720264.998314088 T 40 CATAB v2.0c-linF95 2014-Jun-09 18:03:26 2014-Jun-09 18:03
1935-Aug-25 00:12 00:07 Earth 0.0641934057400405 0.0639751320602163 0.064412902485836 9.43922992824606 9.43483161082987 2428039.508311031 6.57966520293506 9658.97275311002 6.68018222209278 52.6990239637386 738303.957932789 T 40 CATAB v2.0c-linF95 2014-Jun-09 18:03:26 2014-Jun-09 18:03
1935-Oct-23 04:34 00:53 Venus 0.068170153097583 0.0679730965699608 0.0683675731645987 8.19110836527854 8.18721849482599 2428098.690128671 53.2057802932821 6109.35170633117 13.4060806786013 31.2996813129216 245300.10993017 T 40 CATAB v2.0c-linF95 2014-Jun-09 18:03:26 2014-Jun-09 18:03
1936-Jul-24 06:54 00:39 Earth 0.287255303511146 0.287110897131731 0.287399814676057 7.23181168572279 7.23052895436934 2428373.787790786 38.9541450124324 2174.35561100367 16.7881677449247 6.30395903224423 153006.892549212 T 40 CATAB v2.0c-linF95 2014-Jun-09 18:03:26 2014-Jun-09 18:03
1936-Oct-18 03:10 00:58 Earth 0.270417858103533 0.270409348239984 0.270426385801771 9.33390538317711 9.33284968893041 2428459.632224974 58.0037079413947 2242.66198034074 12.5498967820384 -83.0216979737859 2054097.60005929 T 40 CATAB v2.0c-linF95 2014-Jun-09 18:03:26 2014-Jun-09 18:03
1937-Jun-22 23:29 00:28 Earth 0.380075898319587 0.380047919680944 0.38010388145803 8.84763322218187 8.8468408406164 2428707.478277825 28.0537016692876 429.611791704047 22.491411282794 23.7117721423342 636355.269468992 T 40 CATAB v2.0c-linF95 2014-Jun-09 18:03:26 2014-Jun-09 18:03
1937-Nov-29 04:15 00:44 Earth 0.328713240004575 0.328701615817415 0.328724874546856 12.3641859056781 12.3635303023531 2428866.676852300 44.1403675038519 856.618539098304 17.4382457557859 87.6174131246658 2092613.09183595 T 40 CATAB v2.0c-linF95 2014-Jun-09 18:03:26 2014-Jun-09 18:03
1938-May-29 00:08 00:21 Earth 0.389896031975686 0.389868506323504 0.389923557717588 9.12996343562069 9.1292149002849 2429047.505247449 20.9541014847412 906.031911310229 27.0909533609513 -14.2174786999532 337230.088494775 T 40 CATAB v2.0c-linF95 2014-Jun-09 18:03:26 2014-Jun-09 18:03
